logo
Search for airport 
image banner adimage banner adimage banner ad
image banner ad

LSPF - Schaffhausen

Located in Schaffhausen, Switzerland

ICAO - LSPF, IATA -

Data provided by Airmate  

General information

Coordinates: N47°41'26" E8°31'37"
Elevation is 1519 feet MSL.
Magnetic variation is 3.358° East
View others Airports in Schaffhausen

Operational data

Special qualification required
Current time UTC:
Current local time:
Weather at : LSZH - Zurich ( 26 km )
METAR: LSZH 281950Z VRB02KT CAVOK 13/08 Q1019 NOSIG
TAF: TAF LSZH 281725Z 2818/2924 VRB02KT CAVOK TX19/2913Z TN10/2904Z BECMG 2909/2912 25010KT 9999 BKN050 PROB30 TEMPO 2914/2918 29008KT RA BECMG 2917/2919 VRB02KT
View NOTAMs / SUP AIP / TFR affecting this airport [VIEW]
Communications frequencies: [VIEW]

Runways:

RWY identifierQFULength (ft)Width (ft)SurfaceLDA (ft)
0767°177298GRASS
25247°177298GRASS

Airport contact information

Address: Schaffhausen Switzerland

Other aviation service providers

Aviation club (not for profit)

Segelfluggruppe Schaffhausen

Segelfluggruppe Schaffhausen

Satellite view of LSPF